NWS Regional Weather Roundup - New England Area

000
ASUS41 KBOX 241810
RWRBOX

REGIONAL WEATHER ROUNDUP
NATIONAL WEATHER SERVICE BOSTON/NORTON MA
200 PM EDT SUN JUN 24 2018

NOTE:  "FAIR" INDICATES FEW OR NO CLOUDS BELOW 12,000 FEET WITH NO
SIGNIFICANT WEATHER AND/OR OBSTRUCTIONS TO VISIBILITY.

MAZALL-241900-
EASTERN MASSACHUSETTS

CITY           SKY/WX    TMP DP  RH WIND       PRES   REMARKS
BOSTON         PTSUNNY   72  61  68 E12       29.79F
6HR MIN TEMP:  62; 6HR MAX TEMP:  77;

BEVERLY        FAIR      74  65  73 SE9       29.78F
LAWRENCE       CLOUDY    78  64  61 CALM      29.80F
BEDFORD        PTSUNNY   77  65  66 SW5       29.77F
BLUE HILL        N/A     75  64  68 CALM      29.80F
NORWOOD        CLOUDY    80  65  59 SW5       29.78F
MARSHFIELD     FAIR      79  66  65 VRB6G12   29.79F
PLYMOUTH       FAIR      78  65  63 S9G16     29.81F
TAUNTON        PTSUNNY   80  66  62 SW10      29.80F
NEW BEDFORD    PTSUNNY   75  67  76 S13       29.82F
$$

MAZALL-241900-
CAPE COD AND THE ISLANDS

CITY           SKY/WX    TMP DP  RH WIND       PRES   REMARKS
FALMOUTH       CLOUDY    68  63  83 SW14      29.84F
HYANNIS        CLOUDY    68  63  84 SW14      29.82F
CHATHAM        CLOUDY    67  63  87 MISG      29.85S
PROVINCETOWN   FAIR      72  65  78 SW10      29.82F
NANTUCKET      CLOUDY    64  62  93 SW13      29.86S FOG
MARTHAS VNYRD  CLOUDY    66  63  90 SW13      29.85S
$$

MAZALL-241900-
CENTRAL AND WESTERN MASSACHUSETTS

CITY           SKY/WX    TMP DP  RH WIND       PRES   REMARKS
WORCESTER      PTSUNNY   73  64  73 SW8       29.82F
6HR MIN TEMP:  59; 6HR MAX TEMP:  74;

FITCHBURG      PTSUNNY   79  65  62 VRB5      29.79F
ORANGE         PTSUNNY   77  65  66 SW5       29.80F
SPRINGFIELD    CLOUDY    77  64  64 S6        29.78F
WESTFIELD      CLOUDY    77  68  73 S7        29.78F
NORTH ADAMS    LGT RAIN  70  66  87 N3        29.80S FOG
PITTSFIELD     CLOUDY    75  63  66 VRB3      29.81F
$$

RIZALL-241900-
RHODE ISLAND

CITY           SKY/WX    TMP DP  RH WIND       PRES   REMARKS
PROVIDENCE     PTSUNNY   76  65  68 SW8       29.82F
6HR MIN TEMP:  64; 6HR MAX TEMP:  79;

NEWPORT        CLOUDY    67  64  90 VRB6      29.84S
BLOCK ISLAND   CLOUDY    67  65  93 S10       29.85F
SMITHFIELD     CLOUDY    75  64  69 VRB6      29.82F
WESTERLY       CLOUDY    68  65  90 S5        29.84F
$$

CTZALL-241900-
CONNECTICUT

CITY           SKY/WX    TMP DP  RH WIND       PRES   REMARKS
BRADLEY INTL   PTSUNNY   79  66  64 S7        29.79F
6HR MIN TEMP:  62; 6HR MAX TEMP:  80;

HARTFORD       PTSUNNY   78  67  68 S12       29.78F
BRIDGEPORT     PTSUNNY   74  67  78 S7        29.81F
DANBURY        PTSUNNY   80  68  66 SW8       29.81F
GROTON         CLOUDY    69  65  86 VRB5      29.83F
NEW HAVEN      FAIR      75  67  76 SE9       29.82F
CHESTER        CLOUDY    73  66  78 S10       29.83F
MERIDEN        FAIR      78  66  66 VRB7      29.80F
WILLIMANTIC    CLOUDY    73  66  78 VRB6      29.82S
OXFORD         CLOUDY    79  67  66 S5        29.82
$$

MEZ002-015-021-024-NHZ003-005-008-011-012-014-VTZ005-008-241900-
NORTHERN NEW ENGLAND

CITY           SKY/WX    TMP DP  RH WIND       PRES   REMARKS
PORTLAND ME    PTSUNNY   71  61  70 SE13      29.78F
6HR MIN TEMP:  60; 6HR MAX TEMP:  73;

BANGOR ME      PTSUNNY   72  54  53 VRB6      29.78S
CONCORD NH     FAIR      75  63  66 CALM      29.79F
MANCHESTER NH  PTSUNNY   71  64  78 NE3       29.77F
NASHUA NH      PTSUNNY   78  65  63 CALM      29.78F
PORTSMOUTH NH  CLOUDY    74  61  63 CALM      29.77F
JAFFREY NH     PTSUNNY   77  63  61 NW7       29.81F
KEENE NH       CLOUDY    80  66  62 VRB5      29.79S
BURLINGTON VT  CLOUDY    68  58  70 N7        29.82S
MT. WASHINGTON NOT AVBL
$$

NYZ052-076-241900-
EASTERN NEW YORK

CITY           SKY/WX    TMP DP  RH WIND       PRES   REMARKS
ALBANY         LGT RAIN  71  66  84 SW6       29.81R FOG
6HR MIN TEMP:  64; 6HR MAX TEMP:  75; 6HR PCP:  0.07;

NEW YORK CITY  PTSUNNY   79  67  66 S15       29.80S
6HR MIN TEMP:  68; 6HR MAX TEMP:  84; 6HR PCP: TRACE;

$$

ANZALL-241900-
MARINE OBSERVATIONS

STATION/POSITION TIME  TEMP    WIND        PRES    VSBY  WAVE
                       AIR SEA DIR/SP/G                  HT/PER
                 (UTC) (F)     (DEG/KT/KT) (MB)    (MI)  (FT/S)
BOSTON BUOY      1750   63 63  110/  8/ 10 1008.9F         1/ 8
BUZZARDS BAY     1700   62     210/ 13/ 14 1011.4F
NANTUCKET SOUND  1750   63 66  210/ 14/ 16 1010.5F         1/ 3
MASS BAY-STELLWA 1704   59 60              1008.4F         2/ 8
ISLE OF SHOALS   1800   64     160/  7/  8 1008.3F
S OF BLOCK IS    1743      63                N/A           4/ 7
$$

......................KEY.........................
  SKY/WX - SKY CONDITION/PRESENT WEATHER
  TMP    - TEMPERATURE IN FAHRENHEIT
  DWPT   - DEWPOINT IN FAHRENHEIT
  RH     - RELATIVE HUMIDITY IN PERCENT
  WIND   - DIRECTION AND SPEED IN MPH
  PRES   - MEAN SEA LEVEL PRESSURE IN INCHES OF HG
  WCI    - WIND CHILL INDEX
  VSB    - VISIBILITY IN MILES
  HX     - HEAT INDEX
  TC     - TEMPERATURE IN CELSIUS
  VRB    - VARIABLE WIND DIRECTION
  N/A    - NOT AVAILABLE

NWS BOX Regional Weather Roundup - New England Area